| time (UTC) | temp C | wind direction | speed KPH | gust KPH | rain 1hr cm | rain 24hr cm | rain mn cm | humidity % | barometer mb |
| 20260504045831 | 5 | 0.0 | 0.0 | 0.00 | 0.00 | 0.00 | 96 | 1015.9 | |
| 20260504044832 | 5 | 0.0 | 0.0 | 0.00 | 0.00 | 0.00 | 96 | 1015.9 | |
| 20260504043819 | 5 | 0.0 | 0.0 | 0.00 | 0.00 | 0.00 | 93 | 1015.9 | |
| 20260504042840 | 5 | 0.0 | 0.0 | 0.00 | 0.00 | 0.00 | 93 | 1015.8 | |
| 20260504041821 | 5 | 0.0 | 0.0 | 0.00 | 0.00 | 0.00 | 92 | 1015.6 | |
| 20260504040823 | 5 | 0.0 | 0.0 | 0.00 | 0.00 | 0.00 | 91 | 1015.6 | |
| 20260504035823 | 5 | 0.0 | 0.0 | 0.00 | 0.00 | 0.00 | 90 | 1015.5 | |
| 20260504034825 | 5 | 0.0 | 0.0 | 0.00 | 0.00 | 0.00 | 90 | 1015.3 | |
| 20260504033826 | 5 | 0.0 | 0.0 | 0.00 | 0.00 | 0.00 | 90 | 1015.3 | |
| 20260504032827 | 6 | 0.0 | 0.0 | 0.00 | 0.00 | 0.00 | 89 | 1015.3 | |
| 20260504031822 | 6 | 0.0 | 0.0 | 0.00 | 0.00 | 0.00 | 90 | 1015.3 | |
| 20260504030818 | 6 | 0.0 | 0.0 | 0.00 | 0.00 | 0.00 | 87 | 1015.3 | |
| 20260504025831 | 6 | 0.0 | 0.0 | 0.00 | 0.00 | 0.00 | 89 | 1015.3 | |
| 20260504024833 | 6 | 0.0 | 0.0 | 0.00 | 0.00 | 0.00 | 86 | 1015.1 | |
| 20260504023830 | 7 | 0.0 | 0.0 | 0.00 | 0.00 | 0.00 | 84 | 1015.1 | |
| 20260504022831 | 7 | 0.0 | 0.0 | 0.00 | 0.00 | 0.00 | 84 | 1015.1 | |
| 20260504021827 | 7 | 0.0 | 0.0 | 0.00 | 0.00 | 0.00 | 83 | 1015.3 | |
| 20260504020828 | 7 | 0.0 | 0.0 | 0.00 | 0.00 | 0.00 | 80 | 1015.1 | |
| 20260504015829 | 8 | 0.0 | 0.0 | 0.00 | 0.00 | 0.00 | 78 | 1015.1 | |
| 20260504014830 | 8 | 0.0 | 0.0 | 0.00 | 0.00 | 0.00 | 75 | 1015.0 | |
| 20260504013831 | 8 | 0.0 | 0.0 | 0.00 | 0.00 | 0.00 | 75 | 1015.0 | |
| 20260504012815 | 8 | 0.0 | 0.0 | 0.00 | 0.00 | 0.00 | 73 | 1014.9 | |
| 20260504011817 | 8 | 0.0 | 0.0 | 0.00 | 0.00 | 0.00 | 69 | 1014.8 | |
| 20260504010818 | 9 | 0.0 | 0.0 | 0.00 | 0.00 | 0.00 | 66 | 1014.6 | |
| 20260504005819 | 10 | 0.0 | 0.0 | 0.00 | 0.00 | 0.00 | 66 | 1014.6 | |
| 20260504004820 | 10 | 0.0 | 0.0 | 0.00 | 0.00 | 0.00 | 63 | 1014.5 | |
| 20260504003839 | 10 | 0.0 | 0.0 | 0.00 | 0.00 | 0.00 | 61 | 1014.5 | |
| 20260504002820 | 11 | 0.0 | 0.0 | 0.00 | 0.00 | 0.00 | 58 | 1014.3 | |
| 20260504001822 | 11 | 0.0 | 0.0 | 0.00 | 0.00 | 0.00 | 56 | 1014.3 | |
| 20260504000823 | 12 | 0.0 | 0.0 | 0.00 | 0.00 | 0.00 | 54 | 1014.1 | |
| 20260503235818 | 12 | 0.0 | 0.0 | 0.00 | 0.00 | 0.00 | 52 | 1014.0 | |
| 20260503234826 | 13 | 0.0 | 0.0 | 0.00 | 0.00 | 0.00 | 51 | 1013.7 | |
| 20260503233827 | 14 | 0.0 | 0.0 | 0.00 | 0.00 | 0.00 | 49 | 1013.7 | |
| 20260503232828 | 14 | 0.0 | 0.0 | 0.00 | 0.00 | 0.00 | 47 | 1013.7 | |
| 20260503231830 | 15 | 0.0 | 0.0 | 0.00 | 0.00 | 0.00 | 45 | 1013.8 | |
| 20260503230831 | 15 | 23 | 0.0 | 4.8 | 0.00 | 0.00 | 0.00 | 45 | 1013.8 |
| 20260503225833 | 15 | 0.0 | 0.0 | 0.00 | 0.00 | 0.00 | 45 | 1013.8 | |
| 20260503224816 | 15 | 0.0 | 0.0 | 0.00 | 0.00 | 0.00 | 45 | 1013.7 | |
| 20260503223829 | 15 | 0.0 | 4.8 | 0.00 | 0.00 | 0.00 | 44 | 1013.7 | |
| 20260503222830 | 16 | 225 | 0.0 | 3.2 | 0.00 | 0.00 | 0.00 | 43 | 1013.7 |
| 20260503221831 | 16 | 59 | 1.6 | 4.8 | 0.00 | 0.00 | 0.00 | 44 | 1013.7 |
| 20260503220832 | 16 | 150 | 1.6 | 6.4 | 0.00 | 0.00 | 0.00 | 43 | 1013.7 |
| 20260503215815 | 16 | 45 | 1.6 | 4.8 | 0.00 | 0.00 | 0.00 | 42 | 1013.8 |
| 20260503214816 | 16 | 45 | 1.6 | 8.0 | 0.00 | 0.00 | 0.00 | 43 | 1013.7 |
| 20260503213818 | 16 | 117 | 3.2 | 4.8 | 0.00 | 0.00 | 0.00 | 42 | 1013.7 |
| 20260503212832 | 16 | 133 | 3.2 | 8.0 | 0.00 | 0.00 | 0.00 | 42 | 1013.7 |
| 20260503211825 | 16 | 338 | 1.6 | 4.8 | 0.00 | 0.00 | 0.00 | 43 | 1013.7 |
| 20260503210820 | 16 | 146 | 3.2 | 8.0 | 0.00 | 0.00 | 0.00 | 41 | 1013.7 |
| 20260503205815 | 17 | 1.6 | 3.2 | 0.00 | 0.00 | 0.00 | 42 | 1013.8 | |
| 20260503204836 | 17 | 203 | 0.0 | 3.2 | 0.00 | 0.00 | 0.00 | 42 | 1013.8 |
| 20260503203815 | 17 | 158 | 3.2 | 6.4 | 0.00 | 0.00 | 0.00 | 42 | 1013.8 |
| 20260503202816 | 17 | 1.6 | 4.8 | 0.00 | 0.00 | 0.00 | 43 | 1013.9 | |
| 20260503201817 | 17 | 349 | 1.6 | 3.2 | 0.00 | 0.00 | 0.00 | 43 | 1014.1 |
| 20260503200818 | 17 | 149 | 6.4 | 6.4 | 0.00 | 0.00 | 0.00 | 41 | 1014.3 |
| 20260503195820 | 17 | 180 | 3.2 | 6.4 | 0.00 | 0.00 | 0.00 | 44 | 1014.3 |
| 20260503194821 | 17 | 73 | 6.4 | 9.7 | 0.00 | 0.00 | 0.00 | 42 | 1014.5 |
| 20260503193825 | 17 | 103 | 1.6 | 4.8 | 0.00 | 0.00 | 0.00 | 43 | 1014.5 |
| 20260503192825 | 17 | 61 | 3.2 | 6.4 | 0.00 | 0.00 | 0.00 | 43 | 1014.5 |
| 20260503191825 | 16 | 121 | 3.2 | 6.4 | 0.00 | 0.00 | 0.00 | 45 | 1014.6 |
| 20260503190827 | 17 | 23 | 3.2 | 6.4 | 0.00 | 0.00 | 0.00 | 44 | 1014.8 |
| 20260503185821 | 16 | 113 | 3.2 | 11.3 | 0.00 | 0.00 | 0.00 | 46 | 1014.8 |
| 20260503184816 | 17 | 157 | 1.6 | 4.8 | 0.00 | 0.00 | 0.00 | 43 | 1015.0 |
| 20260503183841 | 17 | 203 | 4.8 | 9.7 | 0.00 | 0.00 | 0.00 | 45 | 1015.1 |
| 20260503182823 | 16 | 39 | 3.2 | 6.4 | 0.00 | 0.00 | 0.00 | 44 | 1015.3 |
| 20260503181824 | 17 | 122 | 3.2 | 6.4 | 0.00 | 0.00 | 0.00 | 44 | 1015.3 |
| 20260503180825 | 16 | 115 | 4.8 | 8.0 | 0.00 | 0.00 | 0.00 | 46 | 1015.3 |
| 20260503175826 | 16 | 315 | 1.6 | 3.2 | 0.00 | 0.00 | 0.00 | 45 | 1015.4 |
| 20260503174827 | 15 | 167 | 6.4 | 11.3 | 0.00 | 0.00 | 0.00 | 45 | 1015.4 |
| 20260503173828 | 15 | 78 | 4.8 | 9.7 | 0.00 | 0.00 | 0.00 | 46 | 1015.4 |
| 20260503172830 | 15 | 66 | 4.8 | 8.0 | 0.00 | 0.00 | 0.00 | 44 | 1015.5 |
| 20260503171825 | 15 | 164 | 3.2 | 6.4 | 0.00 | 0.00 | 0.00 | 46 | 1015.5 |
| 20260503170840 | 15 | 63 | 3.2 | 8.0 | 0.00 | 0.00 | 0.00 | 45 | 1015.8 |
| 20260503150831 | 13 | 0.0 | 1.6 | 0.00 | 0.00 | 0.00 | 55 | 1016.3 | |
| 20260503130821 | 9 | 348 | 4.8 | 8.0 | 0.00 | 0.00 | 0.00 | 67 | 1016.3 |
| 20260503080824 | 5 | 0.0 | 0.0 | 0.00 | 0.00 | 0.00 | 83 | 1013.4 | |
| 20260503072829 | 6 | 0.0 | 3.2 | 0.00 | 0.00 | 0.00 | 83 | 1012.9 | |
| 20260503071824 | 5 | 45 | 0.0 | 1.6 | 0.00 | 0.00 | 0.00 | 85 | 1012.9 |
| 20260503070819 | 5 | 68 | 1.6 | 3.2 | 0.00 | 0.00 | 0.00 | 85 | 1012.9 |
| 20260503054822 | 5 | 0.0 | 0.0 | 0.00 | 0.00 | 0.00 | 85 | 1013.0 | |
| 20260503053824 | 5 | 0.0 | 0.0 | 0.00 | 0.00 | 0.00 | 84 | 1013.0 |